Theta_e
344 347 348 345 344 342 341 342 346 351 350 353 354 357 358 353 348 347 347 348 348 347 345 347 349 348 348 348 348 346 346 347 350 352 351 351 350 350 352 351 354 357 357 358
345 346 343 342 340 339 336 341 347 350 350 351 353 354 356 354 351 348 348 348 348 348 347 347 348 348 348 348 348 349 350 350 351 350 351 351 350 349 350 351 355 357 357 358
344 345 342 343 342 337 336 341 346 350 352 349 352 359 358 355 353 348 347 347 348 348 349 349 348 347 347 347 348 349 351 351 353 351 352 353 352 352 350 352 353 356 357 359
340 340 341 340 338 333 338 341 343 351 352 356 351 357 360 357 357 354 349 348 348 349 349 348 347 349 348 348 348 349 351 353 353 353 351 352 351 349 349 353 354 355 357 358
339 338 336 335 335 334 344 341 346 350 351 351 354 351 359 355 358 356 353 350 347 347 347 347 347 346 346 346 348 349 351 353 353 353 352 354 353 348 351 354 356 358 359 358
334 335 334 336 334 336 346 348 349 349 348 352 351 351 354 357 355 354 353 351 349 349 347 346 345 345 345 345 347 349 351 355 355 355 355 355 353 351 349 354 355 355 356 358
332 333 335 333 337 344 346 345 341 341 341 344 348 349 351 349 350 353 352 352 350 349 349 349 348 345 345 346 347 349 351 355 355 355 355 355 355 355 353 353 352 356 354 354
334 339 336 333 334 339 344 342 338 338 336 339 350 351 354 346 348 350 351 351 351 349 348 349 348 347 346 347 349 349 350 354 355 355 355 356 357 354 352 352 350 353 353 356
335 340 331 330 331 335 341 339 335 336 339 340 342 349 350 347 348 347 347 349 350 350 350 349 348 348 347 347 348 349 350 353 354 354 355 357 357 356 351 352 353 353 354 356
333 333 330 328 329 330 332 335 334 335 338 337 341 348 353 357 356 353 352 351 351 351 351 350 349 348 347 346 347 347 349 351 353 353 354 356 356 357 355 355 355 352 354 360
333 331 332 330 331 332 333 333 333 336 335 336 336 353 351 358 357 355 354 352 350 349 349 348 348 348 348 348 346 346 349 350 351 353 353 355 356 356 356 354 355 356 356 358
330 331 333 332 331 330 331 332 332 334 338 334 338 359 348 353 354 354 355 354 355 356 357 355 353 352 350 349 348 347 347 349 351 353 354 356 356 356 354 355 353 356 357 357
331 333 335 334 334 334 335 335 332 332 333 336 338 360 352 354 357 357 363 366 364 362 362 360 358 357 356 352 350 350 351 351 351 353 353 353 354 355 354 353 354 354 357 358
329 334 335 337 340 338 336 338 337 336 336 338 339 358 358 354 355 363 363 358 360 360 360 361 358 356 355 355 355 354 353 353 353 352 353 353 353 354 353 354 355 355 358 359
335 336 337 337 336 336 337 340 340 342 340 338 343 351 354 354 357 354 353 355 353 354 358 358 357 356 356 357 357 358 356 355 354 354 354 354 355 355 356 357 359 360 360 362
333 337 339 338 335 338 338 341 343 341 341 345 343 350 350 356 354 349 351 352 348 348 350 354 357 356 357 357 357 357 357 358 358 359 359 358 360 359 359 360 362 363 364 363
334 334 335 337 336 336 338 342 344 345 345 346 346 348 355 356 347 346 347 348 347 348 349 350 353 355 355 351 350 352 354 355 360 361 360 361 361 361 362 359 357 356 356 356
336 337 334 334 337 338 340 345 344 346 345 346 348 349 351 349 345 345 345 347 348 348 349 348 346 346 346 346 347 347 349 354 357 359 357 357 357 356 350 351 347 349 347 350
333 337 338 335 335 335 335 345 348 349 350 347 349 351 352 347 347 347 345 347 348 347 346 346 346 347 348 346 347 348 347 346 350 354 355 355 355 354 351 350 351 351 351 351
331 334 338 336 335 335 342 344 346 349 351 348 349 356 353 347 347 350 347 346 346 344 345 345 346 346 346 348 347 347 348 345 346 347 349 349 350 351 352 352 352 350 350 350
336 338 338 338 336 332 337 342 346 347 349 350 350 355 353 348 352 351 349 346 344 344 344 346 347 346 348 347 347 348 347 344 347 347 348 348 350 351 350 350 351 350 350 349
338 336 336 336 336 336 343 344 348 347 347 349 352 354 352 352 352 352 349 346 345 346 346 346 347 347 347 347 348 349 349 347 349 350 351 351 351 348 348 351 351 351 350 349
343 342 342 340 344 348 345 346 345 348 351 352 354 354 352 353 354 352 348 346 345 346 348 346 344 344 346 348 348 349 350 347 349 351 351 350 350 350 348 348 348 347 348 347
346 344 345 347 346 346 345 346 347 346 348 350 353 354 353 351 350 348 345 343 342 345 348 346 344 345 347 349 350 350 350 350 350 351 350 348 346 343 347 344 344 344 343 345
344 345 347 345 346 345 345 345 343 341 340 340 342 345 346 345 343 341 340 340 341 346 347 347 348 349 350 350 351 350 351 351 351 349 347 345 341 344 344 346 339 339 340 339
338 342 343 340 344 345 344 344 344 342 340 339 339 340 341 340 340 341 340 343 345 346 348 348 350 350 350 350 351 354 352 352 351 348 342 342 340 340 339 341 343 338 338 336
Wind_Speed
5 7 5 9 8 9 8 7 3 5 6 4 5 9 14 15 13 15 15 15 15 16 20 18 18 17 15 15 15 16 16 15 15 13 11 9 9 8 7 6 4 4 2 1
7 11 8 6 5 8 10 6 4 6 8 1 4 8 11 16 14 14 15 15 15 15 16 17 17 17 18 19 18 18 18 16 16 13 11 8 6 7 7 6 4 5 3 1
12 5 4 11 12 10 8 5 5 1 9 4 6 7 11 14 13 13 15 14 15 15 15 16 19 20 19 18 19 20 19 18 17 15 11 8 8 8 7 7 6 5 4 3
10 8 9 12 10 9 6 3 3 9 9 1 6 3 12 15 17 16 16 17 16 15 13 12 17 19 20 21 20 19 19 19 18 17 14 12 8 8 7 5 3 4 4 5
4 4 6 7 11 7 6 2 8 8 6 4 6 5 8 13 15 20 18 18 18 16 16 16 17 16 17 17 18 18 18 18 17 18 17 13 11 9 8 6 2 3 5 6
14 6 6 6 4 3 4 8 9 6 3 3 5 6 9 7 13 17 19 19 17 16 14 13 15 16 15 14 15 15 15 16 16 16 16 16 13 10 9 8 5 4 4 5
12 15 11 8 5 7 8 13 3 2 2 6 4 4 9 3 2 3 17 18 18 15 13 12 11 15 16 14 14 14 14 15 16 17 17 18 16 13 10 11 10 5 6 5
10 9 12 12 16 9 11 10 8 1 5 5 4 4 6 2 3 5 4 11 13 15 15 15 15 14 14 15 15 16 16 15 16 18 19 17 16 14 13 11 12 9 7 5
6 5 4 4 6 9 7 8 7 7 3 5 4 9 13 8 4 3 5 7 8 9 12 13 13 12 12 14 16 17 16 14 15 17 18 19 18 18 15 13 11 13 9 8
3 4 3 3 7 6 9 2 6 7 3 4 7 4 8 7 7 6 6 7 5 6 9 9 11 14 14 14 14 15 16 16 14 16 18 19 18 18 17 15 14 13 10 8
7 7 7 7 8 11 6 9 5 4 5 3 5 9 11 9 9 8 8 7 8 9 9 9 10 9 13 16 16 17 17 17 17 17 17 16 16 16 16 17 15 14 13 11
12 5 3 5 3 3 7 7 6 9 10 3 7 8 5 10 9 7 7 5 4 3 3 6 8 9 9 12 14 16 16 15 16 15 16 16 15 15 16 16 16 15 15 14
10 7 7 12 10 6 6 3 8 8 6 5 10 8 6 10 9 6 8 8 5 4 3 2 3 4 6 7 10 11 10 11 11 13 15 16 16 17 17 17 16 16 16 16
2 2 10 7 8 4 2 2 6 10 7 11 2 15 11 10 10 10 8 8 7 6 6 6 5 4 3 2 2 6 6 7 9 11 11 12 14 16 17 17 17 16 17 16
5 4 2 4 4 3 2 4 4 8 11 8 7 14 14 13 12 10 10 8 10 11 11 10 9 8 9 9 8 7 4 1 4 7 8 10 10 12 13 14 14 13 14 14
3 3 3 3 3 3 5 1 3 3 2 1 5 15 13 12 13 12 11 9 9 13 12 11 10 11 12 12 10 8 7 5 3 1 2 3 4 6 9 11 13 14 15 16
2 2 3 2 3 4 10 3 3 2 2 1 10 14 16 15 13 11 10 9 9 11 10 11 11 12 11 10 9 8 7 7 6 5 5 4 4 5 5 6 7 7 7 10
2 1 2 4 6 9 9 5 1 2 3 3 8 17 14 14 13 12 10 10 8 10 10 8 9 9 8 9 10 10 11 9 5 5 5 4 4 5 6 6 8 9 14 15
4 3 2 6 7 4 4 4 1 4 8 5 12 12 14 13 14 11 10 9 10 10 11 10 8 6 5 6 6 7 9 7 5 4 2 1 0 2 4 5 5 8 9 10
6 6 7 3 8 6 6 3 2 5 7 8 10 13 15 15 9 7 10 8 8 11 10 8 6 4 4 4 3 4 6 6 5 3 3 3 2 1 2 4 5 6 8 10
8 7 11 9 7 4 5 4 3 9 5 5 8 12 15 10 7 15 13 10 10 10 9 6 3 2 3 2 2 3 5 6 4 3 3 3 2 2 1 2 4 5 7 8
8 8 6 3 5 7 2 3 5 6 4 3 7 11 11 9 11 14 13 11 11 10 8 4 1 1 2 1 1 2 3 2 3 3 3 3 2 2 2 3 5 6 7 9
4 4 1 4 3 4 1 2 3 2 3 4 8 11 11 11 11 12 11 11 11 11 7 3 1 3 2 2 1 2 3 2 1 3 3 3 3 3 3 4 5 6 4 7
2 1 3 4 5 5 4 6 6 6 8 7 7 9 8 8 11 10 10 10 11 10 7 5 4 4 3 1 1 1 0 1 1 3 3 4 4 5 6 6 7 7 8 6
4 3 4 2 5 3 5 5 7 6 6 7 6 6 6 6 6 5 5 4 4 7 7 6 4 3 2 1 2 3 3 1 1 1 1 2 4 5 5 4 6 4 4 3
6 5 6 2 6 6 5 8 4 5 5 4 4 3 2 2 3 4 4 6 6 8 8 6 3 1 3 4 3 3 3 2 3 3 1 3 3 3 5 5 3 7 5 5
Wind_Direction
221 265 266 357 344 321 308 305 265 124 140 158 168 149 167 176 186 177 183 188 189 197 200 202 205 204 201 199 199 204 209 212 211 216 220 226 234 233 244 260 266 256 264 352
223 247 11 323 300 305 314 281 183 108 143 215 155 184 176 181 187 187 189 187 192 190 187 196 203 212 210 207 211 211 211 208 208 215 222 228 238 238 249 258 254 250 251 218
263 310 278 291 299 311 303 279 136 108 154 132 179 170 184 192 192 192 198 203 200 199 198 191 202 211 213 217 215 216 216 212 210 211 210 210 228 244 246 239 246 236 226 202
271 287 282 288 295 324 296 13 212 151 191 159 231 92 184 186 197 200 201 205 211 215 217 236 206 211 218 221 221 223 222 216 213 207 206 208 224 229 214 229 248 231 211 203
219 277 289 287 1 326 11 103 165 168 201 237 161 252 101 186 203 203 207 202 208 209 215 213 224 230 225 224 220 221 222 220 215 210 208 207 219 216 221 223 264 222 210 213
268 284 286 326 352 273 154 135 135 160 226 187 95 281 129 164 221 206 207 211 210 204 211 215 225 226 236 230 221 217 217 219 215 212 211 210 211 215 220 225 241 215 198 199
236 246 235 263 245 162 235 219 189 205 185 54 119 229 54 20 135 249 197 205 210 212 212 218 217 227 226 222 212 212 212 216 211 210 211 212 212 214 226 234 230 260 231 221
203 214 209 203 232 258 214 276 307 290 19 46 130 53 87 76 142 151 141 184 203 216 214 219 221 222 223 224 213 210 210 213 209 208 208 212 212 215 224 232 238 236 249 221
178 224 141 227 220 252 141 233 14 285 176 256 69 105 87 95 124 191 205 163 200 214 229 220 226 212 221 223 222 221 219 215 213 212 209 209 210 211 218 223 226 234 236 233
91 208 181 134 184 203 288 18 218 221 221 289 113 102 96 95 98 117 142 173 167 145 193 198 214 225 220 229 228 227 226 223 219 216 212 212 214 214 215 219 228 233 234 235
247 258 128 171 220 159 173 208 236 324 299 308 258 94 102 110 118 117 116 137 157 167 186 191 203 213 222 218 221 226 220 220 218 217 215 215 218 215 213 219 224 229 235 235
218 306 207 146 124 283 280 305 252 232 174 259 311 97 142 123 123 132 122 122 126 136 207 245 241 237 234 228 221 222 225 224 224 222 218 215 214 216 218 220 224 224 226 232
180 225 168 161 164 176 227 184 266 291 295 191 277 110 142 132 131 119 122 112 93 58 49 320 283 270 247 239 238 230 228 227 228 224 226 225 221 220 224 222 219 220 224 227
228 272 323 25 39 22 188 218 240 262 217 145 74 125 159 147 131 128 111 104 97 90 87 78 74 72 47 3 305 243 232 228 228 224 227 232 231 231 230 226 221 221 221 222
273 101 342 40 30 252 285 316 224 281 359 329 106 139 157 149 136 112 113 110 104 87 70 68 72 70 61 59 58 61 83 173 232 220 227 234 239 234 231 226 223 221 223 230
218 117 239 132 39 266 227 174 277 300 304 129 129 119 129 123 130 127 119 111 91 84 77 76 67 61 64 62 63 70 73 72 87 155 226 226 232 227 219 215 219 217 216 209
307 201 296 251 349 281 226 75 298 306 225 161 178 148 152 146 135 127 117 108 99 93 84 77 74 71 62 46 42 41 39 46 68 106 117 126 140 151 177 185 195 211 209 237
130 218 220 299 277 239 66 65 27 347 129 111 122 143 154 138 128 124 126 122 120 107 105 95 84 74 62 59 51 45 42 49 67 85 93 110 135 162 197 211 246 258 279 263
260 252 184 258 235 301 229 104 282 279 125 127 133 151 133 133 129 132 130 124 119 111 112 105 102 94 69 53 52 44 34 29 35 56 61 61 9 232 232 239 255 276 275 279
212 243 262 185 275 254 57 60 327 280 158 145 152 156 153 159 179 149 150 146 130 125 119 115 103 98 70 53 44 24 32 30 43 47 52 44 26 350 275 273 276 277 274 273
185 221 231 216 257 239 51 346 299 236 77 148 164 161 162 186 37 132 154 155 151 137 135 132 130 35 38 38 49 46 27 52 71 81 70 40 29 23 338 290 281 281 283 294
187 201 204 215 239 239 75 222 280 27 94 116 143 154 164 119 130 144 153 156 159 156 154 172 184 48 71 70 123 91 70 103 71 42 23 20 25 12 350 315 296 290 296 297
210 323 81 300 82 88 66 347 5 36 83 121 151 157 157 153 150 152 157 157 164 162 158 153 91 96 110 135 134 98 115 137 37 15 28 33 33 32 359 333 322 300 300 310
149 343 225 204 140 131 107 128 116 106 102 116 133 156 169 154 155 165 170 174 164 158 151 135 117 102 105 80 340 314 11 85 52 35 40 39 30 16 12 9 358 343 342 347
49 173 188 175 150 168 185 172 144 125 108 100 113 139 163 171 172 173 175 172 168 139 148 141 139 146 141 173 246 263 268 290 313 359 23 19 33 19 21 22 18 14 347 0
189 188 219 276 125 234 146 172 180 174 173 146 137 149 155 241 230 199 190 161 161 145 143 144 153 253 296 275 266 260 241 237 258 261 251 27 8 24 6 2 3 10 18 5